User: anonymous   Login
Location: Unspecified
(0.0000°N, 0.0000°E)
Time: 16:53:01
(UTC+00:00)
Language:

SOMP - Orbit

View from above orbital plane
View from above orbital plane
View from above satellite
View from above satellite

Ground track
Ground track

The orbit data is extracted from the following two-line orbital elements,

1 39135U 13015F   18345.24351413  .00000973  00000-0  58738-4 0  9999
2 39135  64.8692 289.6592 0010713 261.5342  98.4570 15.17065391311505
Epoch (UTC): 11 December 2018 05:50:39
Eccentricity: 0.0010713
inclination: 64.8692°
perigee height: 507 km
apogee height: 522 km
right ascension of ascending node: 289.6592°
argument of perigee: 261.5342°
revolutions per day: 15.17065391
mean anomaly at epoch: 98.4570°
orbit number at epoch: 31150

The dashed part of the orbit path shows where the satellite is in the earth's shadow,  

DLR